Time,TemperatureF,DewpointF,PressureIn,WindDirection,WindDirectionDegrees,WindSpeedMPH,WindSpeedGustMPH,Humidity,HourlyPrecipIn,Conditions,Clouds,dailyrainin,SoftwareType,DateUTC
2013-03-04 00:00:00,32.3,21.5,29.89,WNW,303,3.0,3.0,64,0.00,,,0.00,Wunderground v.1.15,2013-03-04 05:00:00,
2013-03-04 00:05:00,32.2,21.4,29.89,WNW,290,3.0,3.0,64,0.00,,,0.00,Wunderground v.1.15,2013-03-04 05:05:00,
2013-03-04 00:10:00,32.1,21.3,29.89,NW,321,3.0,3.0,64,0.00,,,0.00,Wunderground v.1.15,2013-03-04 05:10:00,
2013-03-04 00:15:00,32.0,21.2,29.89,WNW,299,3.0,4.0,64,0.00,,,0.00,Wunderground v.1.15,2013-03-04 05:15:00,
2013-03-04 00:25:00,31.9,21.1,29.89,WNW,282,4.0,4.0,64,0.00,,,0.00,Wunderground v.1.15,2013-03-04 05:25:00,
2013-03-04 00:30:00,31.9,21.1,29.89,NW,312,3.0,3.0,64,0.00,,,0.00,Wunderground v.1.15,2013-03-04 05:30:00,
2013-03-04 00:35:00,31.9,21.5,29.89,West,276,3.0,3.0,65,0.00,,,0.00,Wunderground v.1.15,2013-03-04 05:35:00,
2013-03-04 00:40:00,31.9,21.5,29.89,WNW,288,3.0,4.0,65,0.00,,,0.00,Wunderground v.1.15,2013-03-04 05:40:00,
2013-03-04 00:45:00,31.8,21.4,29.89,WNW,303,3.0,4.0,65,0.00,,,0.00,Wunderground v.1.15,2013-03-04 05:45:00,
2013-03-04 00:50:00,31.7,21.3,29.89,West,276,3.0,4.0,65,0.00,,,0.00,Wunderground v.1.15,2013-03-04 05:50:00,
2013-03-04 01:00:00,31.7,21.3,29.89,NNW,346,3.0,4.0,65,0.00,,,0.00,Wunderground v.1.15,2013-03-04 06:00:00,
2013-03-04 01:05:00,31.7,21.3,29.89,WNW,299,3.0,5.0,65,0.00,,,0.00,Wunderground v.1.15,2013-03-04 06:05:00,
2013-03-04 01:10:00,31.8,21.4,29.89,West,272,4.0,4.0,65,0.00,,,0.00,Wunderground v.1.15,2013-03-04 06:10:00,
2013-03-04 01:15:00,31.9,21.5,29.89,NW,320,4.0,4.0,65,0.00,,,0.00,Wunderground v.1.15,2013-03-04 06:15:00,
2013-03-04 01:20:00,31.9,21.5,29.89,WSW,253,4.0,5.0,65,0.00,,,0.00,Wunderground v.1.15,2013-03-04 06:20:00,
2013-03-04 01:25:00,31.9,21.5,29.89,NW,310,3.0,5.0,65,0.00,,,0.00,Wunderground v.1.15,2013-03-04 06:25:00,
2013-03-04 01:35:00,31.9,21.5,29.89,West,275,4.0,4.0,65,0.00,,,0.00,Wunderground v.1.15,2013-03-04 06:35:00,
2013-03-04 01:40:00,31.9,21.5,29.89,West,280,4.0,4.0,65,0.00,,,0.00,Wunderground v.1.15,2013-03-04 06:40:00,
2013-03-04 01:45:00,31.9,21.5,29.89,NNW,344,3.0,4.0,65,0.00,,,0.00,Wunderground v.1.15,2013-03-04 06:45:00,
2013-03-04 01:50:00,31.9,21.5,29.89,NNW,335,3.0,6.0,65,0.00,,,0.00,Wunderground v.1.15,2013-03-04 06:50:00,
2013-03-04 01:55:00,31.9,21.5,29.89,NW,321,3.0,6.0,65,0.00,,,0.00,Wunderground v.1.15,2013-03-04 06:55:00,
2013-03-04 02:00:00,31.9,21.1,29.89,NW,319,4.0,7.0,64,0.00,,,0.00,Wunderground v.1.15,2013-03-04 07:00:00,
2013-03-04 02:10:00,31.9,21.5,29.89,NW,310,4.0,8.0,65,0.00,,,0.00,Wunderground v.1.15,2013-03-04 07:10:00,
2013-03-04 02:15:00,31.9,21.5,29.89,NW,306,4.0,8.0,65,0.00,,,0.00,Wunderground v.1.15,2013-03-04 07:15:00,
2013-03-04 02:20:00,31.9,21.5,29.89,NW,313,4.0,4.0,65,0.00,,,0.00,Wunderground v.1.15,2013-03-04 07:20:00,
2013-03-04 02:25:00,31.9,21.5,29.89,WNW,286,4.0,4.0,65,0.00,,,0.00,Wunderground v.1.15,2013-03-04 07:25:00,
2013-03-04 02:30:00,31.9,21.5,29.89,NW,309,4.0,4.0,65,0.00,,,0.00,Wunderground v.1.15,2013-03-04 07:30:00,
2013-03-04 02:35:00,31.7,21.3,29.89,North,355,4.0,4.0,65,0.00,,,0.00,Wunderground v.1.15,2013-03-04 07:35:00,
2013-03-04 02:40:00,31.7,21.3,29.89,NW,324,3.0,4.0,65,0.00,,,0.00,Wunderground v.1.15,2013-03-04 07:40:00,
2013-03-04 02:45:00,31.6,21.2,29.89,NW,309,2.0,4.0,65,0.00,,,0.00,Wunderground v.1.15,2013-03-04 07:45:00,
2013-03-04 02:55:00,31.5,21.1,29.89,NW,307,4.0,7.0,65,0.00,,,0.00,Wunderground v.1.15,2013-03-04 07:55:00,
2013-03-04 03:00:00,31.4,20.6,29.89,NNW,329,4.0,4.0,64,0.00,,,0.00,Wunderground v.1.15,2013-03-04 08:00:00,
2013-03-04 03:05:00,31.4,21.0,29.89,West,277,3.0,4.0,65,0.00,,,0.00,Wunderground v.1.15,2013-03-04 08:05:00,
2013-03-04 03:10:00,31.3,20.9,29.89,WNW,286,3.0,3.0,65,0.00,,,0.00,Wunderground v.1.15,2013-03-04 08:10:00,
2013-03-04 03:15:00,31.2,20.8,29.89,NW,326,3.0,3.0,65,0.00,,,0.00,Wunderground v.1.15,2013-03-04 08:15:00,
2013-03-04 03:20:00,31.2,20.8,29.89,NNW,341,4.0,4.0,65,0.00,,,0.00,Wunderground v.1.15,2013-03-04 08:20:00,
2013-03-04 03:30:00,31.2,20.8,29.89,NW,321,4.0,4.0,65,0.00,,,0.00,Wunderground v.1.15,2013-03-04 08:30:00,
2013-03-04 03:35:00,31.2,20.8,29.89,NW,306,3.0,4.0,65,0.00,,,0.00,Wunderground v.1.15,2013-03-04 08:35:00,
2013-03-04 03:40:00,31.2,20.8,29.90,West,274,3.0,3.0,65,0.00,,,0.00,Wunderground v.1.15,2013-03-04 08:40:00,
2013-03-04 03:45:00,31.2,21.2,29.90,NW,317,3.0,3.0,66,0.00,,,0.00,Wunderground v.1.15,2013-03-04 08:45:00,
2013-03-04 03:50:00,31.2,21.2,29.90,NNW,328,4.0,4.0,66,0.00,,,0.00,Wunderground v.1.15,2013-03-04 08:50:00,
2013-03-04 03:55:00,31.2,21.2,29.90,West,266,4.0,4.0,66,0.00,,,0.00,Wunderground v.1.15,2013-03-04 08:55:00,
2013-03-04 04:00:00,31.1,21.1,29.90,NW,326,3.0,3.0,66,0.00,,,0.00,Wunderground v.1.15,2013-03-04 09:00:00,
2013-03-04 04:10:00,31.0,21.3,29.90,West,268,4.0,4.0,67,0.00,,,0.00,Wunderground v.1.15,2013-03-04 09:10:00,
2013-03-04 04:15:00,31.0,21.3,29.90,NW,321,3.0,4.0,67,0.00,,,0.00,Wunderground v.1.15,2013-03-04 09:15:00,
2013-03-04 04:20:00,30.9,21.2,29.90,West,266,3.0,6.0,67,0.00,,,0.00,Wunderground v.1.15,2013-03-04 09:20:00,
2013-03-04 04:25:00,30.8,20.4,29.91,NNW,338,4.0,8.0,65,0.00,,,0.00,Wunderground v.1.15,2013-03-04 09:25:00,
2013-03-04 04:30:00,30.8,20.0,29.91,WNW,292,6.0,6.0,64,0.00,,,0.00,Wunderground v.1.15,2013-03-04 09:30:00,
2013-03-04 04:35:00,30.8,20.0,29.91,NW,304,6.0,6.0,64,0.00,,,0.00,Wunderground v.1.15,2013-03-04 09:35:00,
2013-03-04 04:45:00,30.8,20.0,29.91,NW,306,5.0,8.0,64,0.00,,,0.00,Wunderground v.1.15,2013-03-04 09:45:00,
2013-03-04 04:50:00,30.7,19.6,29.91,NNW,329,5.0,9.0,63,0.00,,,0.00,Wunderground v.1.15,2013-03-04 09:50:00,
2013-03-04 04:55:00,30.7,19.6,29.91,NNW,341,5.0,9.0,63,0.00,,,0.00,Wunderground v.1.15,2013-03-04 09:55:00,
2013-03-04 05:00:00,30.6,19.9,29.91,NW,325,5.0,9.0,64,0.00,,,0.00,Wunderground v.1.15,2013-03-04 10:00:00,
2013-03-04 05:05:00,30.5,19.8,29.92,NW,311,4.0,11.0,64,0.00,,,0.00,Wunderground v.1.15,2013-03-04 10:05:00,
2013-03-04 05:10:00,30.4,18.9,29.92,WNW,284,5.0,5.0,62,0.00,,,0.00,Wunderground v.1.15,2013-03-04 10:10:00,
2013-03-04 05:15:00,30.3,18.8,29.92,NNW,338,6.0,6.0,62,0.00,,,0.00,Wunderground v.1.15,2013-03-04 10:15:00,
2013-03-04 05:25:00,30.2,18.4,29.92,NNW,335,5.0,5.0,61,0.00,,,0.00,Wunderground v.1.15,2013-03-04 10:25:00,
2013-03-04 05:30:00,30.1,18.3,29.92,NW,322,5.0,6.0,61,0.00,,,0.00,Wunderground v.1.15,2013-03-04 10:30:00,
2013-03-04 05:35:00,30.1,18.6,29.92,WNW,299,5.0,6.0,62,0.00,,,0.00,Wunderground v.1.15,2013-03-04 10:35:00,
2013-03-04 05:40:00,30.0,18.2,29.93,NW,305,5.0,5.0,61,0.00,,,0.00,Wunderground v.1.15,2013-03-04 10:40:00,
2013-03-04 05:45:00,30.0,18.2,29.93,NNW,328,5.0,5.0,61,0.00,,,0.00,Wunderground v.1.15,2013-03-04 10:45:00,
2013-03-04 05:50:00,29.9,18.1,29.93,NW,324,4.0,7.0,61,0.00,,,0.00,Wunderground v.1.15,2013-03-04 10:50:00,
2013-03-04 06:00:00,29.7,17.9,29.93,WSW,247,5.0,5.0,61,0.00,,,0.00,Wunderground v.1.15,2013-03-04 11:00:00,
2013-03-04 06:05:00,29.7,17.9,29.93,WNW,290,4.0,5.0,61,0.00,,,0.00,Wunderground v.1.15,2013-03-04 11:05:00,
2013-03-04 06:10:00,29.6,17.4,29.93,NW,307,4.0,6.0,60,0.00,,,0.00,Wunderground v.1.15,2013-03-04 11:10:00,
2013-03-04 06:15:00,29.6,17.4,29.93,NW,321,5.0,6.0,60,0.00,,,0.00,Wunderground v.1.15,2013-03-04 11:15:00,
2013-03-04 06:20:00,29.5,17.7,29.94,NNW,343,4.0,4.0,61,0.00,,,0.00,Wunderground v.1.15,2013-03-04 11:20:00,
2013-03-04 06:25:00,29.5,17.7,29.94,WNW,297,4.0,4.0,61,0.00,,,0.00,Wunderground v.1.15,2013-03-04 11:25:00,
2013-03-04 06:35:00,29.4,17.6,29.94,WNW,286,5.0,10.0,61,0.00,,,0.00,Wunderground v.1.15,2013-03-04 11:35:00,
2013-03-04 06:40:00,29.4,17.6,29.95,NW,321,5.0,6.0,61,0.00,,,0.00,Wunderground v.1.15,2013-03-04 11:40:00,
2013-03-04 06:45:00,29.5,17.3,29.95,NW,325,5.0,6.0,60,0.00,,,0.00,Wunderground v.1.15,2013-03-04 11:45:00,
2013-03-04 06:50:00,29.5,17.3,29.95,NW,309,6.0,6.0,60,0.00,,,0.00,Wunderground v.1.15,2013-03-04 11:50:00,
2013-03-04 06:55:00,29.5,17.3,29.95,NW,326,6.0,8.0,60,0.00,,,0.00,Wunderground v.1.15,2013-03-04 11:55:00,
2013-03-04 07:00:00,29.6,17.8,29.95,NW,305,6.0,6.0,61,0.00,,,0.00,Wunderground v.1.15,2013-03-04 12:00:00,
2013-03-04 07:10:00,29.8,18.0,29.95,NW,318,6.0,6.0,61,0.00,,,0.00,Wunderground v.1.15,2013-03-04 12:10:00,
2013-03-04 07:15:00,29.9,18.1,29.96,WNW,302,6.0,6.0,61,0.00,,,0.00,Wunderground v.1.15,2013-03-04 12:15:00,
2013-03-04 07:20:00,30.0,18.2,29.96,NNW,346,6.0,6.0,61,0.00,,,0.00,Wunderground v.1.15,2013-03-04 12:20:00,
2013-03-04 07:25:00,30.1,18.3,29.96,NW,322,6.0,6.0,61,0.00,,,0.00,Wunderground v.1.15,2013-03-04 12:25:00,
2013-03-04 07:30:00,30.3,18.8,29.96,NW,310,6.0,7.0,62,0.00,,,0.00,Wunderground v.1.15,2013-03-04 12:30:00,
2013-03-04 07:35:00,30.5,18.3,29.96,WNW,286,5.0,7.0,60,0.00,,,0.00,Wunderground v.1.15,2013-03-04 12:35:00,
2013-03-04 07:40:00,30.6,18.3,29.96,NW,325,6.0,12.0,60,0.00,,,0.00,Wunderground v.1.15,2013-03-04 12:40:00,
2013-03-04 07:50:00,30.8,18.5,29.97,WNW,302,6.0,6.0,60,0.00,,,0.00,Wunderground v.1.15,2013-03-04 12:50:00,
2013-03-04 07:55:00,31.0,18.7,29.97,NW,309,5.0,8.0,60,0.00,,,0.00,Wunderground v.1.15,2013-03-04 12:55:00,
2013-03-04 08:00:00,31.1,18.8,29.97,WNW,300,6.0,6.0,60,0.00,,,0.00,Wunderground v.1.15,2013-03-04 13:00:00,
2013-03-04 08:05:00,31.3,19.0,29.97,NW,318,6.0,7.0,60,0.00,,,0.00,Wunderground v.1.15,2013-03-04 13:05:00,
2013-03-04 08:10:00,31.3,18.2,29.97,NNW,329,6.0,6.0,58,0.00,,,0.00,Wunderground v.1.15,2013-03-04 13:10:00,
2013-03-04 08:15:00,31.4,19.1,29.97,NNW,341,7.0,11.0,60,0.00,,,0.00,Wunderground v.1.15,2013-03-04 13:15:00,
2013-03-04 08:25:00,31.9,18.8,29.97,NW,312,6.0,6.0,58,0.00,,,0.00,Wunderground v.1.15,2013-03-04 13:25:00,
2013-03-04 08:30:00,32.1,19.0,29.97,NW,322,6.0,7.0,58,0.00,,,0.00,Wunderground v.1.15,2013-03-04 13:30:00,
2013-03-04 08:35:00,32.3,18.8,29.97,West,273,6.0,7.0,57,0.00,,,0.00,Wunderground v.1.15,2013-03-04 13:35:00,
2013-03-04 08:40:00,32.6,19.4,29.97,WNW,282,6.0,6.0,58,0.00,,,0.00,Wunderground v.1.15,2013-03-04 13:40:00,
2013-03-04 08:45:00,32.7,18.7,29.97,North,4,6.0,8.0,56,0.00,,,0.00,Wunderground v.1.15,2013-03-04 13:45:00,
2013-03-04 08:50:00,33.0,19.4,29.98,NNW,338,6.0,11.0,57,0.00,,,0.00,Wunderground v.1.15,2013-03-04 13:50:00,
2013-03-04 08:55:00,33.2,19.2,29.98,West,270,6.0,11.0,56,0.00,,,0.00,Wunderground v.1.15,2013-03-04 13:55:00,
2013-03-04 09:05:00,33.7,19.7,29.98,NW,317,6.0,9.0,56,0.00,,,0.00,Wunderground v.1.15,2013-03-04 14:05:00,
2013-03-04 09:10:00,33.9,19.0,29.97,West,261,5.0,5.0,54,0.00,,,0.00,Wunderground v.1.15,2013-03-04 14:10:00,
2013-03-04 09:15:00,33.9,19.0,29.97,North,350,6.0,8.0,54,0.00,,,0.00,Wunderground v.1.15,2013-03-04 14:15:00,
2013-03-04 09:20:00,34.2,19.3,29.97,WNW,288,6.0,6.0,54,0.00,,,0.00,Wunderground v.1.15,2013-03-04 14:20:00,
2013-03-04 09:25:00,34.3,19.4,29.97,NNW,341,6.0,12.0,54,0.00,,,0.00,Wunderground v.1.15,2013-03-04 14:25:00,
2013-03-04 09:30:00,34.4,19.0,29.97,NW,322,6.0,9.0,53,0.00,,,0.00,Wunderground v.1.15,2013-03-04 14:30:00,
2013-03-04 09:40:00,34.6,19.2,29.97,North,354,7.0,7.0,53,0.00,,,0.00,Wunderground v.1.15,2013-03-04 14:40:00,
2013-03-04 09:45:00,34.6,19.2,29.97,NW,307,7.0,7.0,53,0.00,,,0.00,Wunderground v.1.15,2013-03-04 14:45:00,
2013-03-04 09:50:00,34.9,19.5,29.98,NW,308,6.0,8.0,53,0.00,,,0.00,Wunderground v.1.15,2013-03-04 14:50:00,
2013-03-04 09:55:00,35.0,19.6,29.97,West,263,6.0,8.0,53,0.00,,,0.00,Wunderground v.1.15,2013-03-04 14:55:00,
2013-03-04 10:00:00,35.4,20.4,29.98,NW,319,7.0,7.0,54,0.00,,,0.00,Wunderground v.1.15,2013-03-04 15:00:00,
2013-03-04 10:05:00,35.6,19.7,29.97,NNW,333,6.0,7.0,52,0.00,,,0.00,Wunderground v.1.15,2013-03-04 15:05:00,
2013-03-04 10:15:00,36.0,20.5,29.97,NW,310,7.0,8.0,53,0.00,,,0.00,Wunderground v.1.15,2013-03-04 15:15:00,
2013-03-04 10:20:00,36.4,20.4,29.97,WNW,292,5.0,5.0,52,0.00,,,0.00,Wunderground v.1.15,2013-03-04 15:20:00,
2013-03-04 10:25:00,36.6,20.2,29.97,NNW,334,5.0,6.0,51,0.00,,,0.00,Wunderground v.1.15,2013-03-04 15:25:00,
2013-03-04 10:30:00,36.7,19.8,29.97,NW,321,6.0,6.0,50,0.00,,,0.00,Wunderground v.1.15,2013-03-04 15:30:00,
2013-03-04 10:35:00,36.5,19.6,29.97,NW,306,7.0,7.0,50,0.00,,,0.00,Wunderground v.1.15,2013-03-04 15:35:00,
2013-03-04 10:40:00,36.3,19.9,29.97,NW,313,7.0,8.0,51,0.00,,,0.00,Wunderground v.1.15,2013-03-04 15:40:00,
2013-03-04 10:50:00,37.0,21.0,29.97,NW,320,6.0,7.0,52,0.00,,,0.00,Wunderground v.1.15,2013-03-04 15:50:00,
2013-03-04 10:55:00,37.3,21.3,29.97,NNW,339,6.0,11.0,52,0.00,,,0.00,Wunderground v.1.15,2013-03-04 15:55:00,
2013-03-04 11:00:00,37.5,21.0,29.97,NW,324,6.0,7.0,51,0.00,,,0.00,Wunderground v.1.15,2013-03-04 16:00:00,
2013-03-04 11:05:00,37.7,21.2,29.97,West,264,6.0,8.0,51,0.00,,,0.00,Wunderground v.1.15,2013-03-04 16:05:00,
2013-03-04 11:10:00,37.9,20.9,29.96,NNW,331,6.0,9.0,50,0.00,,,0.00,Wunderground v.1.15,2013-03-04 16:10:00,
2013-03-04 11:15:00,37.9,21.4,29.96,NW,309,6.0,9.0,51,0.00,,,0.00,Wunderground v.1.15,2013-03-04 16:15:00,
2013-03-04 11:25:00,38.0,21.0,29.96,NW,312,7.0,11.0,50,0.00,,,0.00,Wunderground v.1.15,2013-03-04 16:25:00,
2013-03-04 11:30:00,38.0,21.5,29.96,West,260,7.0,7.0,51,0.00,,,0.00,Wunderground v.1.15,2013-03-04 16:30:00,
2013-03-04 11:35:00,38.3,21.3,29.96,WSW,250,6.0,7.0,50,0.00,,,0.00,Wunderground v.1.15,2013-03-04 16:35:00,
2013-03-04 11:40:00,38.9,22.8,29.96,WNW,284,5.0,5.0,52,0.00,,,0.00,Wunderground v.1.15,2013-03-04 16:40:00,
2013-03-04 11:45:00,39.4,22.3,29.95,NE,48,4.0,5.0,50,0.00,,,0.00,Wunderground v.1.15,2013-03-04 16:45:00,
2013-03-04 11:50:00,39.4,22.3,29.96,North,351,5.0,9.0,50,0.00,,,0.00,Wunderground v.1.15,2013-03-04 16:50:00,
2013-03-04 11:55:00,39.5,22.8,29.96,NW,311,5.0,9.0,51,0.00,,,0.00,Wunderground v.1.15,2013-03-04 16:55:00,
2013-03-04 12:00:00,38.9,21.8,29.96,NW,317,6.0,6.0,50,0.00,,,0.00,Wunderground v.1.15,2013-03-04 17:00:00,
2013-03-04 12:10:00,39.6,22.5,29.95,NW,321,5.0,6.0,50,0.00,,,0.00,Wunderground v.1.15,2013-03-04 17:10:00,
2013-03-04 12:15:00,39.5,21.4,29.96,NW,321,6.0,6.0,48,0.00,,,0.00,Wunderground v.1.15,2013-03-04 17:15:00,
2013-03-04 12:20:00,39.3,21.7,29.95,WNW,285,7.0,7.0,49,0.00,,,0.00,Wunderground v.1.15,2013-03-04 17:20:00,
2013-03-04 12:25:00,39.6,22.5,29.95,NNW,335,6.0,7.0,50,0.00,,,0.00,Wunderground v.1.15,2013-03-04 17:25:00,
2013-03-04 12:30:00,40.2,23.0,29.95,WNW,286,5.0,5.0,50,0.00,,,0.00,Wunderground v.1.15,2013-03-04 17:30:00,
2013-03-04 12:35:00,40.1,22.4,29.95,West,279,6.0,6.0,49,0.00,,,0.00,Wunderground v.1.15,2013-03-04 17:35:00,
2013-03-04 12:45:00,40.4,23.2,29.94,WNW,282,5.0,6.0,50,0.00,,,0.00,Wunderground v.1.15,2013-03-04 17:45:00,
2013-03-04 12:50:00,40.3,22.6,29.94,NNW,334,6.0,6.0,49,0.00,,,0.00,Wunderground v.1.15,2013-03-04 17:50:00,
2013-03-04 12:55:00,40.4,22.7,29.94,NW,311,6.0,9.0,49,0.00,,,0.00,Wunderground v.1.15,2013-03-04 17:55:00,
2013-03-04 13:00:00,40.0,21.9,29.94,NNW,342,6.0,6.0,48,0.00,,,0.00,Wunderground v.1.15,2013-03-04 18:00:00,
2013-03-04 13:05:00,39.9,22.3,29.94,West,274,6.0,8.0,49,0.00,,,0.00,Wunderground v.1.15,2013-03-04 18:05:00,
2013-03-04 13:10:00,40.2,23.0,29.93,NW,324,6.0,6.0,50,0.00,,,0.00,Wunderground v.1.15,2013-03-04 18:10:00,
2013-03-04 13:15:00,40.2,23.0,29.93,NW,326,6.0,7.0,50,0.00,,,0.00,Wunderground v.1.15,2013-03-04 18:15:00,
2013-03-04 13:25:00,40.1,23.4,29.93,West,269,6.0,7.0,51,0.00,,,0.00,Wunderground v.1.15,2013-03-04 18:25:00,
2013-03-04 13:30:00,40.5,23.8,29.93,NNW,333,5.0,5.0,51,0.00,,,0.00,Wunderground v.1.15,2013-03-04 18:30:00,
2013-03-04 13:35:00,40.8,23.6,29.93,NW,324,5.0,5.0,50,0.00,,,0.00,Wunderground v.1.15,2013-03-04 18:35:00,
2013-03-04 13:40:00,40.6,23.4,29.93,NNW,338,6.0,7.0,50,0.00,,,0.00,Wunderground v.1.15,2013-03-04 18:40:00,
2013-03-04 13:45:00,40.3,23.1,29.92,NW,312,7.0,8.0,50,0.00,,,0.00,Wunderground v.1.15,2013-03-04 18:45:00,
2013-03-04 13:50:00,40.5,23.3,29.93,West,271,6.0,6.0,50,0.00,,,0.00,Wunderground v.1.15,2013-03-04 18:50:00,
2013-03-04 14:00:00,40.7,23.5,29.92,NNW,344,5.0,7.0,50,0.00,,,0.00,Wunderground v.1.15,2013-03-04 19:00:00,
2013-03-04 14:05:00,40.9,24.1,29.92,NW,315,5.0,7.0,51,0.00,,,0.00,Wunderground v.1.15,2013-03-04 19:05:00,
2013-03-04 14:10:00,40.9,23.7,29.92,NNW,341,5.0,6.0,50,0.00,,,0.00,Wunderground v.1.15,2013-03-04 19:10:00,
2013-03-04 14:15:00,40.9,23.7,29.92,WNW,302,6.0,6.0,50,0.00,,,0.00,Wunderground v.1.15,2013-03-04 19:15:00,
2013-03-04 14:20:00,40.9,23.2,29.92,WNW,287,6.0,6.0,49,0.00,,,0.00,Wunderground v.1.15,2013-03-04 19:20:00,
2013-03-04 14:25:00,40.9,22.7,29.92,NW,314,6.0,7.0,48,0.00,,,0.00,Wunderground v.1.15,2013-03-04 19:25:00,
2013-03-04 14:35:00,40.9,23.2,29.92,NW,321,7.0,9.0,49,0.00,,,0.00,Wunderground v.1.15,2013-03-04 19:35:00,
2013-03-04 14:40:00,41.0,22.8,29.92,North,9,7.0,13.0,48,0.00,,,0.00,Wunderground v.1.15,2013-03-04 19:40:00,
2013-03-04 14:45:00,40.9,22.7,29.92,NW,309,7.0,13.0,48,0.00,,,0.00,Wunderground v.1.15,2013-03-04 19:45:00,
2013-03-04 14:50:00,40.8,22.6,29.92,NNW,335,7.0,7.0,48,0.00,,,0.00,Wunderground v.1.15,2013-03-04 19:50:00,
2013-03-04 14:55:00,40.9,23.2,29.92,NNW,347,7.0,7.0,49,0.00,,,0.00,Wunderground v.1.15,2013-03-04 19:55:00,
2013-03-04 15:05:00,41.4,23.2,29.92,NW,313,5.0,7.0,48,0.00,,,0.00,Wunderground v.1.15,2013-03-04 20:05:00,
2013-03-04 15:10:00,41.4,22.7,29.92,WNW,286,6.0,6.0,47,0.00,,,0.00,Wunderground v.1.15,2013-03-04 20:10:00,
2013-03-04 15:15:00,41.4,22.7,29.92,NNW,328,6.0,7.0,47,0.00,,,0.00,Wunderground v.1.15,2013-03-04 20:15:00,
2013-03-04 15:20:00,41.6,22.8,29.92,NW,310,6.0,6.0,47,0.00,,,0.00,Wunderground v.1.15,2013-03-04 20:20:00,
2013-03-04 15:25:00,42.0,22.7,29.91,West,274,6.0,6.0,46,0.00,,,0.00,Wunderground v.1.15,2013-03-04 20:25:00,
2013-03-04 15:30:00,42.2,22.9,29.92,WNW,299,6.0,6.0,46,0.00,,,0.00,Wunderground v.1.15,2013-03-04 20:30:00,
2013-03-04 15:35:00,42.3,23.0,29.91,NW,318,6.0,6.0,46,0.00,,,0.00,Wunderground v.1.15,2013-03-04 20:35:00,
2013-03-04 15:45:00,42.8,23.4,29.91,West,279,5.0,6.0,46,0.00,,,0.00,Wunderground v.1.15,2013-03-04 20:45:00,
2013-03-04 15:50:00,42.9,23.5,29.91,NNW,348,5.0,6.0,46,0.00,,,0.00,Wunderground v.1.15,2013-03-04 20:50:00,
2013-03-04 15:55:00,42.8,22.9,29.91,NNW,346,6.0,12.0,45,0.00,,,0.00,Wunderground v.1.15,2013-03-04 20:55:00,
2013-03-04 16:00:00,42.6,22.7,29.91,NW,319,8.0,8.0,45,0.00,,,0.00,Wunderground v.1.15,2013-03-04 21:00:00,
2013-03-04 16:05:00,42.6,22.7,29.91,WSW,242,8.0,8.0,45,0.00,,,0.00,Wunderground v.1.15,2013-03-04 21:05:00,
2013-03-04 16:15:00,42.8,23.9,29.91,WSW,258,4.0,6.0,47,0.00,,,0.00,Wunderground v.1.15,2013-03-04 21:15:00,
2013-03-04 16:20:00,43.1,23.7,29.92,NW,319,4.0,4.0,46,0.00,,,0.00,Wunderground v.1.15,2013-03-04 21:20:00,
2013-03-04 16:25:00,43.2,23.3,29.92,NW,324,5.0,5.0,45,0.00,,,0.00,Wunderground v.1.15,2013-03-04 21:25:00,
2013-03-04 16:30:00,43.1,22.6,29.92,West,274,5.0,5.0,44,0.00,,,0.00,Wunderground v.1.15,2013-03-04 21:30:00,
2013-03-04 16:40:00,42.8,21.8,29.92,NW,319,6.0,6.0,43,0.00,,,0.00,Wunderground v.1.15,2013-03-04 21:40:00,
2013-03-04 16:50:00,42.5,21.5,29.92,NNW,340,7.0,14.0,43,0.00,,,0.00,Wunderground v.1.15,2013-03-04 21:50:00,
2013-03-04 16:55:00,42.4,22.0,29.92,NW,314,7.0,14.0,44,0.00,,,0.00,Wunderground v.1.15,2013-03-04 21:55:00,
2013-03-04 17:00:00,42.4,22.0,29.92,NW,326,6.0,6.0,44,0.00,,,0.00,Wunderground v.1.15,2013-03-04 22:00:00,
2013-03-04 17:05:00,42.4,22.5,29.92,WNW,303,5.0,6.0,45,0.00,,,0.00,Wunderground v.1.15,2013-03-04 22:05:00,
2013-03-04 17:15:00,42.4,22.0,29.92,NNW,348,4.0,6.0,44,0.00,,,0.00,Wunderground v.1.15,2013-03-04 22:15:00,
2013-03-04 17:20:00,42.3,22.4,29.93,NNW,336,4.0,5.0,45,0.00,,,0.00,Wunderground v.1.15,2013-03-04 22:20:00,
2013-03-04 17:25:00,42.2,22.4,29.93,WNW,294,4.0,5.0,45,0.00,,,0.00,Wunderground v.1.15,2013-03-04 22:25:00,
2013-03-04 17:30:00,41.9,21.5,29.93,NW,306,4.0,4.0,44,0.00,,,0.00,Wunderground v.1.15,2013-03-04 22:30:00,
2013-03-04 17:35:00,41.8,22.5,29.93,WNW,285,4.0,4.0,46,0.00,,,0.00,Wunderground v.1.15,2013-03-04 22:35:00,
2013-03-04 17:45:00,41.5,21.7,29.94,WNW,303,4.0,5.0,45,0.00,,,0.00,Wunderground v.1.15,2013-03-04 22:45:00,
2013-03-04 17:50:00,41.3,22.1,29.94,NNE,21,3.0,5.0,46,0.00,,,0.00,Wunderground v.1.15,2013-03-04 22:50:00,
2013-03-04 17:55:00,41.2,22.0,29.94,NNW,330,3.0,5.0,46,0.00,,,0.00,Wunderground v.1.15,2013-03-04 22:55:00,
2013-03-04 18:00:00,41.0,21.8,29.94,NW,313,4.0,6.0,46,0.00,,,0.00,Wunderground v.1.15,2013-03-04 23:00:00,
2013-03-04 18:05:00,40.8,21.6,29.95,WNW,303,4.0,6.0,46,0.00,,,0.00,Wunderground v.1.15,2013-03-04 23:05:00,
2013-03-04 18:15:00,40.6,21.9,29.95,NW,326,3.0,5.0,47,0.00,,,0.00,Wunderground v.1.15,2013-03-04 23:15:00,
2013-03-04 18:20:00,40.5,22.3,29.95,NW,324,3.0,5.0,48,0.00,,,0.00,Wunderground v.1.15,2013-03-04 23:20:00,
2013-03-04 18:25:00,40.3,21.6,29.95,West,280,4.0,5.0,47,0.00,,,0.00,Wunderground v.1.15,2013-03-04 23:25:00,
2013-03-04 18:30:00,40.2,21.6,29.96,NW,312,4.0,4.0,47,0.00,,,0.00,Wunderground v.1.15,2013-03-04 23:30:00,
2013-03-04 18:35:00,40.0,21.4,29.96,WNW,301,4.0,5.0,47,0.00,,,0.00,Wunderground v.1.15,2013-03-04 23:35:00,
2013-03-04 18:40:00,40.0,20.3,29.96,NNW,332,5.0,12.0,45,0.00,,,0.00,Wunderground v.1.15,2013-03-04 23:40:00,
2013-03-04 18:45:00,40.0,20.3,29.97,NW,307,5.0,12.0,45,0.00,,,0.00,Wunderground v.1.15,2013-03-04 23:45:00,
2013-03-04 18:55:00,39.7,20.1,29.97,NW,316,5.0,5.0,45,0.00,,,0.00,Wunderground v.1.15,2013-03-04 23:55:00,
2013-03-04 19:00:00,39.6,20.0,29.97,NNW,336,5.0,7.0,45,0.00,,,0.00,Wunderground v.1.15,2013-03-05 00:00:00,
2013-03-04 19:05:00,39.5,20.4,29.97,NW,324,5.0,7.0,46,0.00,,,0.00,Wunderground v.1.15,2013-03-05 00:05:00,
2013-03-04 19:10:00,39.4,20.3,29.97,NNW,345,5.0,7.0,46,0.00,,,0.00,Wunderground v.1.15,2013-03-05 00:10:00,
2013-03-04 19:15:00,39.3,20.2,29.98,NNW,333,5.0,7.0,46,0.00,,,0.00,Wunderground v.1.15,2013-03-05 00:15:00,
2013-03-04 19:25:00,39.1,20.5,29.98,NNW,340,4.0,5.0,47,0.00,,,0.00,Wunderground v.1.15,2013-03-05 00:25:00,
2013-03-04 19:30:00,38.9,20.4,29.98,WNW,296,3.0,4.0,47,0.00,,,0.00,Wunderground v.1.15,2013-03-05 00:30:00,
2013-03-04 19:35:00,38.8,19.8,29.98,NW,325,4.0,4.0,46,0.00,,,0.00,Wunderground v.1.15,2013-03-05 00:35:00,
2013-03-04 19:40:00,38.7,20.2,29.98,NNW,347,4.0,7.0,47,0.00,,,0.00,Wunderground v.1.15,2013-03-05 00:40:00,
2013-03-04 19:45:00,38.6,20.1,29.98,NW,313,3.0,7.0,47,0.00,,,0.00,Wunderground v.1.15,2013-03-05 00:45:00,
2013-03-04 19:55:00,38.5,20.5,29.99,WNW,291,3.0,4.0,48,0.00,,,0.00,Wunderground v.1.15,2013-03-05 00:55:00,
2013-03-04 20:00:00,38.4,20.9,29.99,NW,321,3.0,3.0,49,0.00,,,0.00,Wunderground v.1.15,2013-03-05 01:00:00,
2013-03-04 20:05:00,38.2,20.7,29.99,WNW,294,2.0,4.0,49,0.00,,,0.00,Wunderground v.1.15,2013-03-05 01:05:00,
2013-03-04 20:10:00,38.1,20.6,29.99,NNW,333,1.0,2.0,49,0.00,,,0.00,Wunderground v.1.15,2013-03-05 01:10:00,
2013-03-04 20:15:00,37.9,20.9,30.00,WNW,296,1.0,2.0,50,0.00,,,0.00,Wunderground v.1.15,2013-03-05 01:15:00,
2013-03-04 20:20:00,37.8,20.8,30.00,West,273,1.0,1.0,50,0.00,,,0.00,Wunderground v.1.15,2013-03-05 01:20:00,
2013-03-04 20:30:00,37.5,21.0,30.00,WNW,303,1.0,1.0,51,0.00,,,0.00,Wunderground v.1.15,2013-03-05 01:30:00,
2013-03-04 20:35:00,37.4,21.4,30.00,WNW,303,1.0,1.0,52,0.00,,,0.00,Wunderground v.1.15,2013-03-05 01:35:00,
2013-03-04 20:40:00,37.2,21.2,30.01,West,272,1.0,2.0,52,0.00,,,0.00,Wunderground v.1.15,2013-03-05 01:40:00,
2013-03-04 20:50:00,36.9,20.9,30.01,West,272,1.0,1.0,52,0.00,,,0.00,Wunderground v.1.15,2013-03-05 01:50:00,
2013-03-04 21:00:00,36.7,21.6,30.01,West,272,1.0,1.0,54,0.00,,,0.00,Wunderground v.1.15,2013-03-05 02:00:00,
2013-03-04 21:05:00,36.5,21.4,30.01,West,268,1.0,3.0,54,0.00,,,0.00,Wunderground v.1.15,2013-03-05 02:05:00,
2013-03-04 21:10:00,36.4,21.3,30.01,West,268,1.0,1.0,54,0.00,,,0.00,Wunderground v.1.15,2013-03-05 02:10:00,
2013-03-04 21:15:00,36.2,21.6,30.01,West,275,1.0,2.0,55,0.00,,,0.00,Wunderground v.1.15,2013-03-05 02:15:00,
2013-03-04 21:25:00,36.0,20.9,30.01,West,278,1.0,2.0,54,0.00,,,0.00,Wunderground v.1.15,2013-03-05 02:25:00,
2013-03-04 21:30:00,36.0,20.9,30.01,NW,312,2.0,2.0,54,0.00,,,0.00,Wunderground v.1.15,2013-03-05 02:30:00,
2013-03-04 21:35:00,36.0,20.9,30.01,NW,308,1.0,2.0,54,0.00,,,0.00,Wunderground v.1.15,2013-03-05 02:35:00,
2013-03-04 21:40:00,36.0,20.9,30.01,West,279,1.0,1.0,54,0.00,,,0.00,Wunderground v.1.15,2013-03-05 02:40:00,
2013-03-04 21:45:00,36.0,20.9,30.01,WNW,303,1.0,1.0,54,0.00,,,0.00,Wunderground v.1.15,2013-03-05 02:45:00,
2013-03-04 21:50:00,36.0,20.9,30.01,NW,321,1.0,1.0,54,0.00,,,0.00,Wunderground v.1.15,2013-03-05 02:50:00,
2013-03-04 22:00:00,35.9,21.3,30.01,NW,322,1.0,2.0,55,0.00,,,0.00,Wunderground v.1.15,2013-03-05 03:00:00,
2013-03-04 22:05:00,35.9,21.3,30.02,WNW,294,1.0,2.0,55,0.00,,,0.00,Wunderground v.1.15,2013-03-05 03:05:00,
2013-03-04 22:10:00,35.8,21.2,30.02,WNW,300,1.0,1.0,55,0.00,,,0.00,Wunderground v.1.15,2013-03-05 03:10:00,
2013-03-04 22:15:00,35.7,21.5,30.02,WNW,300,1.0,1.0,56,0.00,,,0.00,Wunderground v.1.15,2013-03-05 03:15:00,
2013-03-04 22:25:00,35.7,21.5,30.01,NNW,330,1.0,2.0,56,0.00,,,0.00,Wunderground v.1.15,2013-03-05 03:25:00,
2013-03-04 22:30:00,35.7,21.5,30.01,NW,312,1.0,2.0,56,0.00,,,0.00,Wunderground v.1.15,2013-03-05 03:30:00,
2013-03-04 22:35:00,35.6,21.4,30.01,WNW,303,1.0,2.0,56,0.00,,,0.00,Wunderground v.1.15,2013-03-05 03:35:00,
2013-03-04 22:40:00,35.5,21.3,30.01,NW,309,1.0,2.0,56,0.00,,,0.00,Wunderground v.1.15,2013-03-05 03:40:00,
2013-03-04 22:45:00,35.5,21.3,30.01,WNW,296,1.0,2.0,56,0.00,,,0.00,Wunderground v.1.15,2013-03-05 03:45:00,
2013-03-04 22:50:00,35.5,21.3,30.01,NW,313,2.0,2.0,56,0.00,,,0.00,Wunderground v.1.15,2013-03-05 03:50:00,
2013-03-04 23:00:00,35.4,21.7,30.01,NW,314,1.0,2.0,57,0.00,,,0.00,Wunderground v.1.15,2013-03-05 04:00:00,
2013-03-04 23:05:00,35.4,21.7,30.00,NW,314,1.0,2.0,57,0.00,,,0.00,Wunderground v.1.15,2013-03-05 04:05:00,
2013-03-04 23:10:00,35.3,21.6,30.00,WNW,295,1.0,1.0,57,0.00,,,0.00,Wunderground v.1.15,2013-03-05 04:10:00,
2013-03-04 23:15:00,35.2,21.5,30.00,West,281,1.0,1.0,57,0.00,,,0.00,Wunderground v.1.15,2013-03-05 04:15:00,
2013-03-04 23:20:00,35.1,21.4,30.00,West,281,1.0,1.0,57,0.00,,,0.00,Wunderground v.1.15,2013-03-05 04:20:00,
2013-03-04 23:25:00,35.1,21.4,30.00,West,281,1.0,1.0,57,0.00,,,0.00,Wunderground v.1.15,2013-03-05 04:25:00,
2013-03-04 23:35:00,34.9,21.6,30.00,NNW,348,0.0,0.0,58,0.00,,,0.00,Wunderground v.1.15,2013-03-05 04:35:00,
2013-03-04 23:40:00,34.7,21.8,30.00,NNW,348,0.0,0.0,59,0.00,,,0.00,Wunderground v.1.15,2013-03-05 04:40:00,
2013-03-04 23:45:00,34.6,21.7,30.00,NNW,348,0.0,0.0,59,0.00,,,0.00,Wunderground v.1.15,2013-03-05 04:45:00,
2013-03-04 23:50:00,34.4,21.5,30.00,NNW,348,0.0,1.0,59,0.00,,,0.00,Wunderground v.1.15,2013-03-05 04:50:00,
2013-03-04 23:55:00,34.3,21.4,30.00,NNW,348,0.0,1.0,59,0.00,,,0.00,Wunderground v.1.15,2013-03-05 04:55:00,